Time,TemperatureF,DewpointF,PressureIn,WindDirection,WindDirectionDegrees,WindSpeedMPH,WindSpeedGustMPH,Humidity,HourlyPrecipIn,Conditions,Clouds,dailyrainin,SolarRadiationWatts/m^2,SoftwareType,DateUTC
2013-03-04 00:01:00,28.0,10.0,-100.00,NNW,328,3.0,7.0,47,0.00,,,0.00,0.000000,,2013-03-04 05:01:00,
2013-03-04 00:32:00,26.0,12.0,-100.00,NW,305,2.0,4.0,54,0.00,,,0.00,0.000000,,2013-03-04 05:32:00,
2013-03-04 00:43:00,26.0,12.0,-100.00,NW,305,2.0,4.0,54,0.00,,,0.00,0.000000,,2013-03-04 05:43:00,
2013-03-04 00:52:00,26.0,12.0,-100.00,NW,305,2.0,4.0,54,0.00,,,0.00,0.000000,,2013-03-04 05:52:00,
2013-03-04 01:02:00,26.0,12.0,-100.00,NW,305,2.0,4.0,54,0.00,,,0.00,0.000000,,2013-03-04 06:02:00,
2013-03-04 01:32:00,26.0,11.0,-100.00,West,280,3.0,5.0,53,0.00,,,0.00,0.000000,,2013-03-04 06:32:00,
2013-03-04 01:42:00,26.0,11.0,-100.00,West,280,3.0,5.0,53,0.00,,,0.00,0.000000,,2013-03-04 06:42:00,
2013-03-04 01:52:00,26.0,11.0,-100.00,West,280,3.0,5.0,53,0.00,,,0.00,0.000000,,2013-03-04 06:52:00,
2013-03-04 02:02:00,26.0,11.0,-100.00,West,280,3.0,5.0,53,0.00,,,0.00,0.000000,,2013-03-04 07:02:00,
2013-03-04 02:32:00,27.0,11.0,-100.00,WNW,292,3.0,6.0,51,0.00,,,0.00,0.000000,,2013-03-04 07:32:00,
2013-03-04 02:42:00,27.0,11.0,-100.00,WNW,292,3.0,6.0,51,0.00,,,0.00,0.000000,,2013-03-04 07:42:00,
2013-03-04 02:52:00,27.0,11.0,-100.00,WNW,292,3.0,6.0,51,0.00,,,0.00,0.000000,,2013-03-04 07:52:00,
2013-03-04 03:02:00,27.0,11.0,-100.00,WNW,292,3.0,6.0,51,0.00,,,0.00,0.000000,,2013-03-04 08:02:00,
2013-03-04 03:32:00,25.0,10.0,-100.00,West,278,2.0,5.0,53,0.00,,,0.00,0.000000,,2013-03-04 08:32:00,
2013-03-04 03:42:00,25.0,10.0,-100.00,West,278,2.0,5.0,53,0.00,,,0.00,0.000000,,2013-03-04 08:42:00,
2013-03-04 03:52:00,25.0,10.0,-100.00,West,278,2.0,5.0,53,0.00,,,0.00,0.000000,,2013-03-04 08:52:00,
2013-03-04 04:02:00,25.0,10.0,-100.00,West,278,2.0,5.0,53,0.00,,,0.00,0.000000,,2013-03-04 09:02:00,
2013-03-04 04:32:00,25.0,12.0,-100.00,West,279,2.0,3.0,56,0.00,,,0.00,0.000000,,2013-03-04 09:32:00,
2013-03-04 04:42:00,25.0,12.0,-100.00,West,279,2.0,3.0,56,0.00,,,0.00,0.000000,,2013-03-04 09:42:00,
2013-03-04 04:52:00,25.0,12.0,-100.00,West,279,2.0,3.0,56,0.00,,,0.00,0.000000,,2013-03-04 09:52:00,
2013-03-04 05:01:00,25.0,12.0,-100.00,West,279,2.0,3.0,56,0.00,,,0.00,0.000000,,2013-03-04 10:01:00,
2013-03-04 05:32:00,26.0,12.0,-100.00,NW,307,2.0,4.0,56,0.00,,,0.00,0.000000,,2013-03-04 10:32:00,
2013-03-04 05:42:00,26.0,12.0,-100.00,NW,307,2.0,4.0,56,0.00,,,0.00,0.000000,,2013-03-04 10:42:00,
2013-03-04 05:52:00,26.0,12.0,-100.00,NW,307,2.0,4.0,56,0.00,,,0.00,0.000000,,2013-03-04 10:52:00,
2013-03-04 06:02:00,26.0,12.0,-100.00,NW,307,2.0,4.0,56,0.00,,,0.00,0.000000,,2013-03-04 11:02:00,
2013-03-04 06:32:00,26.0,12.0,-100.00,WNW,300,3.0,5.0,55,0.00,,,0.00,0.000000,,2013-03-04 11:32:00,
2013-03-04 06:42:00,26.0,12.0,-100.00,WNW,300,3.0,5.0,55,0.00,,,0.00,0.000000,,2013-03-04 11:42:00,
2013-03-04 06:52:00,26.0,12.0,-100.00,WNW,300,3.0,5.0,55,0.00,,,0.00,0.000000,,2013-03-04 11:52:00,
2013-03-04 07:02:00,26.0,12.0,-100.00,WNW,300,3.0,5.0,55,0.00,,,0.00,0.000000,,2013-03-04 12:02:00,
2013-03-04 07:32:00,26.0,10.0,-100.00,North,355,2.0,5.0,50,0.00,,,0.00,1.000000,,2013-03-04 12:32:00,
2013-03-04 07:43:00,26.0,10.0,-100.00,North,355,2.0,5.0,50,0.00,,,0.00,1.000000,,2013-03-04 12:43:00,
2013-03-04 07:53:00,26.0,10.0,-100.00,North,355,2.0,5.0,50,0.00,,,0.00,1.000000,,2013-03-04 12:53:00,
2013-03-04 08:02:00,26.0,10.0,-100.00,North,355,2.0,5.0,50,0.00,,,0.00,1.000000,,2013-03-04 13:02:00,
2013-03-04 08:32:00,29.0,14.0,-100.00,SW,222,1.0,6.0,53,0.00,,,0.00,80.000000,,2013-03-04 13:32:00,
2013-03-04 08:42:00,29.0,14.0,-100.00,SW,222,1.0,6.0,53,0.00,,,0.00,80.000000,,2013-03-04 13:42:00,
2013-03-04 08:52:00,29.0,14.0,-100.00,SW,222,1.0,6.0,53,0.00,,,0.00,80.000000,,2013-03-04 13:52:00,
2013-03-04 09:01:00,29.0,14.0,-100.00,SW,222,1.0,6.0,53,0.00,,,0.00,80.000000,,2013-03-04 14:01:00,
2013-03-04 09:32:00,37.0,14.0,-100.00,SE,141,3.0,4.0,38,0.00,,,0.00,318.000000,,2013-03-04 14:32:00,
2013-03-04 09:42:00,37.0,14.0,-100.00,SE,141,3.0,4.0,38,0.00,,,0.00,318.000000,,2013-03-04 14:42:00,
2013-03-04 09:52:00,37.0,14.0,-100.00,SE,141,3.0,4.0,38,0.00,,,0.00,318.000000,,2013-03-04 14:52:00,
2013-03-04 10:02:00,37.0,14.0,-100.00,SE,141,3.0,4.0,38,0.00,,,0.00,318.000000,,2013-03-04 15:02:00,
2013-03-04 10:32:00,41.0,11.0,-100.00,SSW,200,3.0,6.0,29,0.00,,,0.00,588.000000,,2013-03-04 15:32:00,
2013-03-04 10:42:00,41.0,11.0,-100.00,SSW,200,3.0,6.0,29,0.00,,,0.00,588.000000,,2013-03-04 15:42:00,
2013-03-04 10:52:00,41.0,11.0,-100.00,SSW,200,3.0,6.0,29,0.00,,,0.00,588.000000,,2013-03-04 15:52:00,
2013-03-04 11:03:00,41.0,11.0,-100.00,SSW,200,3.0,6.0,29,0.00,,,0.00,588.000000,,2013-03-04 16:03:00,
2013-03-04 11:32:00,45.0,12.0,-100.00,SE,139,4.0,8.0,26,0.00,,,0.00,772.000000,,2013-03-04 16:32:00,
2013-03-04 11:42:00,45.0,12.0,-100.00,SE,139,4.0,8.0,26,0.00,,,0.00,772.000000,,2013-03-04 16:42:00,
2013-03-04 11:52:00,45.0,12.0,-100.00,SE,139,4.0,8.0,26,0.00,,,0.00,772.000000,,2013-03-04 16:52:00,
2013-03-04 12:02:00,45.0,12.0,-100.00,SE,139,4.0,8.0,26,0.00,,,0.00,772.000000,,2013-03-04 17:02:00,
2013-03-04 12:32:00,49.0,16.0,-100.00,ESE,119,4.0,9.0,26,0.00,,,0.00,893.000000,,2013-03-04 17:32:00,
2013-03-04 12:42:00,49.0,16.0,-100.00,ESE,119,4.0,9.0,26,0.00,,,0.00,893.000000,,2013-03-04 17:42:00,
2013-03-04 12:52:00,49.0,16.0,-100.00,ESE,119,4.0,9.0,26,0.00,,,0.00,893.000000,,2013-03-04 17:52:00,
2013-03-04 13:02:00,49.0,16.0,-100.00,ESE,119,4.0,9.0,26,0.00,,,0.00,893.000000,,2013-03-04 18:02:00,
2013-03-04 13:32:00,53.0,15.0,-100.00,SE,125,4.0,11.0,22,0.00,,,0.00,940.000000,,2013-03-04 18:32:00,
2013-03-04 13:42:00,53.0,15.0,-100.00,SE,125,4.0,11.0,22,0.00,,,0.00,940.000000,,2013-03-04 18:42:00,
2013-03-04 13:52:00,53.0,15.0,-100.00,SE,125,4.0,11.0,22,0.00,,,0.00,940.000000,,2013-03-04 18:52:00,
2013-03-04 14:02:00,53.0,15.0,-100.00,SE,125,4.0,11.0,22,0.00,,,0.00,940.000000,,2013-03-04 19:02:00,
2013-03-04 14:32:00,54.0,15.0,-100.00,SSE,151,5.0,9.0,21,0.00,,,0.00,886.000000,,2013-03-04 19:32:00,
2013-03-04 14:42:00,54.0,15.0,-100.00,SSE,151,5.0,9.0,21,0.00,,,0.00,886.000000,,2013-03-04 19:42:00,
2013-03-04 14:52:00,54.0,15.0,-100.00,SSE,151,5.0,9.0,21,0.00,,,0.00,886.000000,,2013-03-04 19:52:00,
2013-03-04 15:02:00,54.0,15.0,-100.00,SSE,151,5.0,9.0,21,0.00,,,0.00,886.000000,,2013-03-04 20:02:00,
2013-03-04 15:33:00,55.0,17.0,-100.00,SE,135,5.0,9.0,22,0.00,,,0.00,536.000000,,2013-03-04 20:33:00,
2013-03-04 15:42:00,55.0,17.0,-100.00,SE,135,5.0,9.0,22,0.00,,,0.00,536.000000,,2013-03-04 20:42:00,
2013-03-04 15:53:00,55.0,17.0,-100.00,SE,135,5.0,9.0,22,0.00,,,0.00,536.000000,,2013-03-04 20:53:00,
2013-03-04 16:02:00,55.0,17.0,-100.00,SE,135,5.0,9.0,22,0.00,,,0.00,536.000000,,2013-03-04 21:02:00,
2013-03-04 16:32:00,54.0,17.0,-100.00,South,189,4.0,8.0,23,0.00,,,-99.99,442.000000,,2013-03-04 21:32:00,
2013-03-04 16:43:00,54.0,17.0,-100.00,South,189,4.0,8.0,23,0.00,,,-99.99,442.000000,,2013-03-04 21:43:00,
2013-03-04 16:53:00,54.0,17.0,-100.00,South,189,4.0,8.0,23,0.00,,,-99.99,442.000000,,2013-03-04 21:53:00,
2013-03-04 17:02:00,54.0,17.0,-100.00,South,189,4.0,8.0,23,0.00,,,-99.99,442.000000,,2013-03-04 22:02:00,
2013-03-04 17:32:00,53.0,20.0,-100.00,SE,141,3.0,8.0,27,0.00,,,0.00,192.000000,,2013-03-04 22:32:00,
2013-03-04 17:43:00,53.0,20.0,-100.00,SE,141,3.0,8.0,27,0.00,,,0.00,192.000000,,2013-03-04 22:43:00,
2013-03-04 17:52:00,53.0,20.0,-100.00,SE,141,3.0,8.0,27,0.00,,,0.00,192.000000,,2013-03-04 22:52:00,
2013-03-04 18:02:00,53.0,20.0,-100.00,SE,141,3.0,8.0,27,0.00,,,0.00,192.000000,,2013-03-04 23:02:00,
2013-03-04 18:32:00,50.0,21.0,-100.00,SE,136,2.0,6.0,32,0.00,,,0.00,48.000000,,2013-03-04 23:32:00,
2013-03-04 18:42:00,50.0,21.0,-100.00,SE,136,2.0,6.0,32,0.00,,,0.00,48.000000,,2013-03-04 23:42:00,
2013-03-04 18:52:00,50.0,21.0,-100.00,SE,136,2.0,6.0,32,0.00,,,0.00,48.000000,,2013-03-04 23:52:00,
2013-03-04 19:02:00,50.0,21.0,-100.00,SE,136,2.0,6.0,32,0.00,,,0.00,48.000000,,2013-03-05 00:02:00,
2013-03-04 19:32:00,48.0,22.0,-100.00,ENE,73,2.0,4.0,36,0.00,,,0.00,3.000000,,2013-03-05 00:32:00,
2013-03-04 19:42:00,48.0,22.0,-100.00,ENE,73,2.0,4.0,36,0.00,,,0.00,3.000000,,2013-03-05 00:42:00,
2013-03-04 19:52:00,48.0,22.0,-100.00,ENE,73,2.0,4.0,36,0.00,,,0.00,3.000000,,2013-03-05 00:52:00,
2013-03-04 20:02:00,48.0,22.0,-100.00,ENE,73,2.0,4.0,36,0.00,,,0.00,3.000000,,2013-03-05 01:02:00,
2013-03-04 21:32:00,46.0,21.0,-100.00,NE,36,1.0,3.0,37,-99.99,,,0.00,0.000000,,2013-03-05 02:32:00,
2013-03-04 21:42:00,46.0,21.0,-100.00,NE,36,1.0,3.0,37,-99.99,,,0.00,0.000000,,2013-03-05 02:42:00,
2013-03-04 21:53:00,46.0,21.0,-100.00,NE,36,1.0,3.0,37,-99.99,,,0.00,0.000000,,2013-03-05 02:53:00,
2013-03-04 22:02:00,46.0,21.0,-100.00,NE,36,1.0,3.0,37,-99.99,,,0.00,0.000000,,2013-03-05 03:02:00,
2013-03-04 22:32:00,44.0,22.0,-100.00,NNW,338,2.0,3.0,41,0.00,,,0.00,0.000000,,2013-03-05 03:32:00,
2013-03-04 22:42:00,44.0,22.0,-100.00,NNW,338,2.0,3.0,41,0.00,,,0.00,0.000000,,2013-03-05 03:42:00,
2013-03-04 22:52:00,44.0,22.0,-100.00,NNW,338,2.0,3.0,41,0.00,,,0.00,0.000000,,2013-03-05 03:52:00,
2013-03-04 23:02:00,44.0,22.0,-100.00,NNW,338,2.0,3.0,41,0.00,,,0.00,0.000000,,2013-03-05 04:02:00,
2013-03-04 23:32:00,43.0,20.0,-100.00,NW,310,3.0,4.0,40,0.00,,,0.00,0.000000,,2013-03-05 04:32:00,
2013-03-04 23:42:00,43.0,20.0,-100.00,NW,310,3.0,4.0,40,0.00,,,0.00,0.000000,,2013-03-05 04:42:00,
2013-03-04 23:52:00,43.0,20.0,-100.00,NW,310,3.0,4.0,40,0.00,,,0.00,0.000000,,2013-03-05 04:52:00,